Location: Newark
(34.6283°N, 36.0776°E)
Time: 02:02:57
(UTC+00:00)

Tiros 1 despin weight - Pass Details

Date: 29 September 2019
Orbit: 594 x 643 km, 48.2° (Epoch: 17 October)

Event Time Altitude Azimuth Distance (km) Brightness Sun altitude
Rises 06:23:10 0° 245° (WSW) 2,923 ? 33.4°
Reaches altitude 10° 06:25:33 10° 250° (WSW) 2,012 ? 33.8°
Maximum altitude 06:30:05 53° 327° (NNW) 777 ? 34.6°
Drops below altitude 10° 06:34:34 10° 45° (NE) 1,991 ? 35.4°
Sets 06:36:55 0° 50° (NE) 2,890 ? 35.8°
